Location: Brede
(50.9167°N, 0.6000°E)
Time: 03:46:13
(UTC+00:00)

Sich 1 Rocket - Pass Details

Date: 08 August 2020
Orbit: 617 x 651 km, 82.5° (Epoch: 25 September)

Event Time Altitude Azimuth Distance (km) Brightness Sun altitude
Exits shadow 01:10:47 49° 250° (WSW) 809 3.8 -21.4°
Maximum altitude 01:11:27 54° 284° (WNW) 757 3.9 -21.4°
Drops below altitude 10° 01:15:47 10° 3° (N) 1,996 7.2 -21.2°
Sets 01:18:04 0° 8° (N) 2,906 8.5 -21.1°
